This demonstration page uses our WeatherBlox Daily Observations layout. Learn more.

38.88101, -77.10428

Hourly Observations for January 1, 2020

Temp ( °F °C ) Dew Point ( °F °C ) Humidity (%) Winds ( mph kmh ) Pressure ( in mb ) Visibility ( mi km ) Precip ( " mm )
12:52 am 00:52 Cloudy 44 6.7 29 -1.7 55 55 NNW 8 13 29.76 1008 10 16.0934 0 0
1:52 am 01:52 Cloudy 43 6.1 29 -1.7 58 58 NW 9 15 29.78 1008 10 16.0934 0 0
2:52 am 02:52 Mostly Cloudy 43 6.1 28 -2.2 56 56 NW 9 15 29.78 1009 10 16.0934 0 0
3:52 am 03:52 Mostly Cloudy 42 5.6 27 -2.8 55 55 NNW 10 17 29.79 1009 10 16.0934 0 0
4:52 am 04:52 Cloudy 41 5 27 -2.8 57 57 NNW 7 11 29.79 1009 10 16.0934 0 0
5:52 am 05:52 Cloudy 42 5.6 27 -2.8 55 55 WNW 7 11 29.8 1009 10 16.0934 0 0
6:52 am 06:52 Mostly Cloudy 41 5 26 -3.3 55 55 NW 7 11 29.81 1010 10 16.0934 0 0
7:52 am 07:52 Partly Cloudy 42 5.6 26 -3.3 53 53 WNW 6 9 29.83 1010 10 16.0934 0 0
8:52 am 08:52 Mostly Sunny 44 6.7 26 -3.3 49 49 W 6 9 29.86 1011 10 16.0934 0 0
9:52 am 09:52 Mostly Sunny 45 7.2 25 -3.9 46 46 WNW 13 20 29.88 1012 10 16.0934 0 0
10:52 am 10:52 Mostly Sunny 47 8.3 23 -5 39 39 W 12 19 29.88 1012 10 16.0934 0 0
11:52 am 11:52 Mostly Sunny 48 8.9 24 -4.4 39 39 W 14 22 29.86 1011 10 16.0934 0 0
12:52 pm 12:52 Mostly Sunny 49 9.4 24 -4.4 38 38 W 15 24 29.84 1011 10 16.0934 0 0
1:52 pm 13:52 Mostly Sunny 50 10 24 -4.4 36 36 W 10 17 29.83 1010 10 16.0934 0 0
2:52 pm 14:52 Mostly Sunny 51 10.6 22 -5.6 32 32 W 8 13 29.83 1010 10 16.0934 0 0
3:52 pm 15:52 Mostly Sunny 51 10.6 21 -6.1 31 31 WNW 12 19 29.86 1011 10 16.0934 0 0
4:52 pm 16:52 Mostly Sunny 48 8.9 20 -6.7 33 33 WNW 9 15 29.88 1012 10 16.0934 0 0
5:52 pm 17:52 Clear 47 8.3 19 -7.2 33 33 WNW 7 11 29.9 1013 10 16.0934 0 0
6:52 pm 18:52 Clear 45 7.2 20 -6.7 37 37 NW 6 9 29.92 1013 10 16.0934 0 0
7:52 pm 19:52 Clear 43 6.1 20 -6.7 40 40 Calm 29.94 1014 10 16.0934 0 0
8:52 pm 20:52 Clear 44 6.7 20 -6.7 38 38 NW 5 7 29.95 1014 10 16.0934 0 0
9:52 pm 21:52 Clear 40 4.4 25 -3.9 55 55 SSE 3 6 29.95 1014 10 16.0934 0 0
10:52 pm 22:52 Clear 37 2.8 27 -2.8 67 67 SW 5 7 29.96 1014 10 16.0934 0 0
11:52 pm 23:52 Clear 37 2.8 30 -1.1 76 76 SSW 6 9 29.96 1014 10 16.0934 0 0

Powered by AerisWeather